EST,Max TemperatureF,Mean TemperatureF,Min TemperatureF,Max Dew PointF,MeanDew PointF,Min DewpointF,Max Humidity, Mean Humidity, Min Humidity, Max Sea Level PressureIn, Mean Sea Level PressureIn, Min Sea Level PressureIn, Max VisibilityMiles, Mean VisibilityMiles, Min VisibilityMiles, Max Wind SpeedMPH, Mean Wind SpeedMPH, Max Gust SpeedMPH,PrecipitationIn, CloudCover, Events, WindDirDegrees
2012-11-1,46,44,41,37,35,34,76,71,66,29.66,29.62,29.58,10,10,10,14,7,20,0.00,5,Rain,243
2012-11-2,46,42,39,36,33,30,76,67,57,29.84,29.72,29.66,10,10,10,15,7,28,0.00,6,Rain,270
2012-11-3,44,42,39,30,28,25,65,58,49,30.03,29.93,29.84,10,10,10,15,9,25,0.00,8,,306
2012-11-4,42,37,32,30,27,25,80,64,56,30.04,30.02,30.00,10,10,10,14,7,20,0.00,6,,315
2012-11-5,41,36,32,27,24,19,65,59,49,30.20,30.09,30.02,10,10,7,14,8,20,0.00,8,,336
2012-11-6,41,32,24,25,22,19,86,64,45,30.24,30.17,30.09,10,10,7,9,3,,0.00,2,,46
2012-11-7,41,36,32,32,24,18,93,63,52,30.09,29.95,29.86,10,10,4,16,10,23,0.00,5,Rain-Snow,17
2012-11-8,50,42,35,23,19,16,56,43,26,30.01,29.90,29.84,10,10,5,22,11,31,0.00,3,,334
2012-11-9,53,42,32,32,27,21,87,57,35,30.24,30.13,30.01,10,10,7,13,6,21,0.00,0,,299
2012-11-10,51,42,32,37,35,30,93,69,50,30.42,30.34,30.28,10,8,5,5,1,,0.00,4,Rain,199
2012-11-11,64,48,33,45,39,32,93,69,39,30.49,30.44,30.40,10,7,2,8,1,,0.00,2,,174
2012-11-12,64,50,37,55,47,36,93,76,59,30.46,30.33,30.14,10,8,3,17,5,24,0.00,2,Rain,177
2012-11-13,60,46,33,55,35,27,93,74,57,30.49,30.35,30.12,10,9,2,15,8,25,0.62,6,Rain,329
2012-11-14,46,38,30,30,24,19,93,63,37,30.56,30.50,30.46,10,10,1,13,3,18,0.00,1,,27
2012-11-15,44,36,28,28,26,23,87,68,46,30.48,30.39,30.32,10,10,10,10,2,,0.00,0,,37
2012-11-16,48,40,32,30,27,23,93,70,40,30.47,30.36,30.31,10,10,7,7,1,,0.00,0,Snow,342
2012-11-17,51,40,28,30,27,23,93,70,38,30.65,30.58,30.47,10,10,5,9,1,,0.00,0,,52
2012-11-18,46,37,28,32,30,25,93,80,57,30.67,30.62,30.57,10,8,5,9,2,,0.00,0,,37
2012-11-19,50,40,30,32,30,27,93,75,50,30.56,30.42,30.26,10,10,5,12,3,,0.00,1,,33
2012-11-20,50,40,30,32,30,28,93,70,46,30.25,30.17,30.12,10,10,5,6,1,,0.00,0,,12
2012-11-21,51,40,30,32,29,25,93,70,37,30.25,30.21,30.16,10,10,7,7,1,,0.00,0,,43
2012-11-22,53,40,26,32,28,23,93,70,38,30.30,30.23,30.15,10,8,3,4,0,,0.00,0,,140
2012-11-23,57,42,28,36,30,27,93,65,38,30.14,29.92,29.73,10,8,3,12,2,21,0.00,2,Rain,216
2012-11-24,44,38,33,28,21,18,65,53,39,29.92,29.83,29.76,10,10,10,20,12,30,0.00,6,Snow,282
2012-11-25,37,32,28,21,20,16,74,57,48,29.98,29.94,29.90,10,10,7,15,8,25,0.00,5,,250
2012-11-26,46,38,30,25,21,19,75,56,34,30.25,30.13,29.98,10,10,7,12,5,20,0.00,1,,249
2012-11-27,33,32,30,32,30,23,100,91,70,30.28,30.25,30.21,10,4,0,5,1,,0.14,7,Fog-Snow,28
2012-11-28,37,34,30,32,24,19,93,70,52,30.32,30.26,30.22,10,10,5,12,3,18,0.00,3,Snow,251
2012-11-29,41,34,28,27,23,19,80,64,52,30.39,30.34,30.30,10,10,7,16,7,20,0.00,0,,230
2012-11-30,42,34,26,28,26,21,93,74,53,30.43,30.37,30.33,10,8,5,9,2,,0.00,3,,39